Weather History for KNID - January, 2013

Change the Weather History Date:

Tuesday, January 15, 2013

  Actual Average Record
Temperature  
Mean Temperature 32 °F -  
Max Temperature 48 °F 58 °F 70 °F (2014)
Min Temperature 15 °F 35 °F 15 °F (2013)
Degree Days  
Heating Degree Days 34    
Moisture  
Dew Point -4 °F    
Average Humidity 24    
Maximum Humidity 36    
Minimum Humidity 14    
Precipitation  
Precipitation 0.00 in - - ()
Sea Level Pressure  
Sea Level Pressure 30.50 in    
Wind  
Wind Speed 3 mph (SW)    
Max Wind Speed 7 mph    
Max Gust Speed -    
Visibility 10 miles    
Events      
Averages and records for this station are not official NWS values.
T = Trace of Precipitation, MM = Missing Value Source: NWS Daily Summary

Daily Weather History Graph

Daily Weather History Graph

Search for Another Location

Airport or City:

Trip Planner

Search our weather history database for the weather conditions in past years. The results will help you decide how hot, cold, wet, or windy it might be!

Date:

Astronomy

Jan. 15, 2013 Rise Set
Actual Time 6:59 AM PST 5:01 PM PST
Civil Twilight 6:32 AM PST 5:28 PM PST
Nautical Twilight 6:00 AM PST 6:00 PM PST
Astronomical Twilight 5:30 AM PST 6:30 PM PST
Moon 9:18 AM PST (1/15) 9:44 PM PST (1/15)
Length of Visible Light 10h 56m
Length of Day
10h 01m
Waxing Crescent, 20% of the Moon is Illuminated
Jan 15
Waxing Crescent
Jan 18
First Quarter
Jan 26
Full
Feb 3
Last Quarter
Feb 9
New

Hourly Weather History & Observations

Time (PST) Temp. Windchill Dew Point Humidity Pressure Visibility Wind Dir Wind Speed Gust Speed Precip Events Conditions
12:56 AM 19.9 °F 13.4 °F -8.0 °F 29% 30.44 in 10.0 mi SW 4.6 mph - N/A   Clear
1:56 AM 19.9 °F 13.4 °F -7.1 °F 30% 30.47 in 10.0 mi SSW 4.6 mph - N/A   Clear
2:56 AM 17.1 °F - -9.0 °F 31% 30.48 in 10.0 mi Calm Calm - N/A   Clear
3:56 AM 17.1 °F 8.7 °F -9.0 °F 31% 30.48 in 10.0 mi WSW 5.8 mph - N/A   Clear
4:56 AM 15.1 °F - -9.9 °F 32% 30.50 in 10.0 mi Calm Calm - N/A   Clear
5:56 AM 16.0 °F 7.4 °F -8.0 °F 34% 30.52 in 10.0 mi SW 5.8 mph - N/A   Clear
6:56 AM 16.0 °F 6.3 °F -7.1 °F 36% 30.55 in 10.0 mi SW 6.9 mph - N/A   Partly Cloudy
7:56 AM 17.1 °F - -11.0 °F 28% 30.57 in 10.0 mi Calm Calm - N/A   Partly Cloudy
8:56 AM 25.0 °F - -7.1 °F 24% 30.60 in 10.0 mi Calm Calm - N/A   Clear
9:56 AM 30.9 °F - -5.1 °F 21% 30.58 in 10.0 mi Calm Calm - N/A   Mostly Cloudy
10:56 AM 36.0 °F - -4.0 °F 18% 30.53 in 10.0 mi Calm Calm - N/A   Partly Cloudy
11:56 AM 41.0 °F 38.0 °F -4.0 °F 15% 30.51 in 10.0 mi ENE 4.6 mph - N/A   Mostly Cloudy
12:56 PM 45.0 °F 41.8 °F -2.0 °F 14% 30.48 in 10.0 mi Variable 5.8 mph - N/A   Mostly Cloudy
1:56 PM 46.0 °F - -0.0 °F 15% 30.46 in 10.0 mi Calm Calm - N/A   Clear
2:56 PM 48.0 °F - 3.9 °F 16% 30.45 in 10.0 mi NE 3.5 mph - N/A   Mostly Cloudy
3:56 PM 48.9 °F - 5.0 °F 17% 30.45 in 10.0 mi Calm Calm - N/A   Partly Cloudy
4:56 PM 45.0 °F 43.5 °F 5.0 °F 19% 30.46 in 10.0 mi North 3.5 mph - N/A   Partly Cloudy
5:56 PM 39.0 °F 36.8 °F 3.0 °F 22% 30.48 in 10.0 mi NW 3.5 mph - N/A   Scattered Clouds
6:56 PM 35.1 °F 29.3 °F -0.9 °F 22% 30.51 in 10.0 mi SW 6.9 mph - N/A   Partly Cloudy
7:56 PM 30.9 °F - -2.9 °F 23% 30.52 in 10.0 mi Calm Calm - N/A   Partly Cloudy
8:56 PM 28.9 °F 21.9 °F -4.0 °F 24% 30.52 in 10.0 mi SSW 6.9 mph - N/A   Clear
9:56 PM 28.9 °F 21.9 °F -2.9 °F 25% 30.51 in 10.0 mi SW 6.9 mph - N/A   Clear
10:56 PM 25.0 °F - -4.0 °F 28% 30.52 in 10.0 mi Calm Calm - N/A   Clear
11:56 PM 24.1 °F 19.7 °F -2.9 °F 31% 30.51 in 10.0 mi SSE 3.5 mph - N/A   Clear